Terminal Aerodrome Forecast
Issued by NWS Sioux Falls, SD

Home | Current Version | Previous Version | Text Only | Print | Product List | Glossary Off
Versions: 1 2 3 4 5 6 7 8 9 10 11 12 13 14 15 16 17 18 19 20 21 22 23 24 25 26 27 28 29 30 31 32 33 34 35 36

000
FTUS43 KFSD 201500 AAA
TAFSUX
TAF AMD
KSUX 201538Z 2016/2112 16009KT P6SM SKC
     FM201630 17012KT P6SM BKN015
     FM201900 17013G20KT P6SM BKN025
     FM210030 15009KT P6SM SCT025
     FM210700 14006KT P6SM FEW030=

USA.gov is the U.S. government's official web portal to all federal, state and local government web resources and services.